Fond du Lac, WI

1:23 PM CDT on April 28, 2017 (GMT -0500)
Fond du Lac County

Weather History for KFLD - January, 2013

Change the Weather History Date:

Tuesday, January 29, 2013

  Actual Average Record
Temperature  
Mean Temperature 44 °F -  
Max Temperature 53 °F 25 °F 53 °F (2013)
Min Temperature 35 °F 9 °F -25 °F (1952)
Degree Days  
Heating Degree Days 21    
Moisture  
Dew Point 40 °F    
Average Humidity 93    
Maximum Humidity 100    
Minimum Humidity 82    
Precipitation  
Precipitation 0.96 in - - ()
Sea Level Pressure  
Sea Level Pressure 29.58 in    
Wind  
Wind Speed 11 mph (SSW)    
Max Wind Speed 17 mph    
Max Gust Speed 26 mph    
Visibility 7 miles    
Events Rain , Thunderstorm    
Averages and records for this station are not official NWS values.
T = Trace of Precipitation, MM = Missing Value Source: NWS Daily Summary

Daily Weather History Graph

Daily Weather History Graph

Search for Another Location

Airport or City:

Trip Planner

Search our weather history database for the weather conditions in past years. The results will help you decide how hot, cold, wet, or windy it might be!

Date:

Astronomy

Jan. 29, 2013 Rise Set
Actual Time 7:13 AM CST 5:01 PM CST
Civil Twilight 6:42 AM CST 5:31 PM CST
Nautical Twilight 6:08 AM CST 6:06 PM CST
Astronomical Twilight 5:34 AM CST 6:40 PM CST
Moon 8:04 PM CST (1/29) 8:03 AM CST (1/29)
Length of Visible Light 10h 49m
Length of Day
9h 47m
Waning Gibbous, 93% of the Moon is Illuminated
Jan 29
Waning Gibbous
Feb 3
Last Quarter
Feb 10
New
Feb 17
First Quarter
Feb 25
Full

Hourly Weather History & Observations

Time (CST) Temp. Windchill Dew Point Humidity Pressure Visibility Wind Dir Wind Speed Gust Speed Precip Events Conditions
12:22 AM 35.6 °F 26.2 °F 32.0 °F 87% 29.76 in 9.0 mi SE 15.0 mph - N/A   Overcast
12:53 AM 36.0 °F 26.3 °F 30.9 °F 82% 29.76 in 8.0 mi SE 16.1 mph 23.0 mph 0.00 in Rain Light Rain
1:04 AM 35.6 °F 25.5 °F 32.0 °F 87% 29.72 in 6.0 mi SE 17.3 mph 25.3 mph 0.02 in Rain , Thunderstorm Rain
1:14 AM 35.6 °F 25.5 °F 32.0 °F 87% 29.72 in 4.0 mi SE 17.3 mph 26.5 mph 0.06 in Rain Rain
1:31 AM 35.6 °F 25.9 °F 33.8 °F 93% 29.72 in 5.0 mi SSE 16.1 mph - 0.12 in Rain , Thunderstorm Rain
1:46 AM 35.6 °F 27.1 °F 33.8 °F 93% 29.74 in 5.0 mi South 12.7 mph 23.0 mph 0.17 in Rain Rain
1:53 AM 36.0 °F 28.5 °F 34.0 °F 93% 29.76 in 4.0 mi South 10.4 mph - 0.21 in Rain , Thunderstorm Heavy Rain
2:11 AM 35.6 °F 29.2 °F 33.8 °F 93% 29.71 in 4.0 mi SE 8.1 mph - 0.18 in Rain Heavy Rain
2:53 AM 36.0 °F 31.1 °F 34.0 °F 93% 29.71 in 10.0 mi SSE 5.8 mph - 0.23 in Rain Light Rain
3:53 AM 37.0 °F 28.1 °F 35.1 °F 93% 29.66 in 10.0 mi SSE 15.0 mph - 0.02 in Rain Light Rain
4:38 AM 37.4 °F 30.3 °F 35.6 °F 93% 29.61 in 10.0 mi SSE 10.4 mph - 0.00 in   Overcast
4:48 AM 37.4 °F 31.4 °F 35.6 °F 93% 29.61 in 10.0 mi SSE 8.1 mph - 0.00 in   Overcast
4:53 AM 37.9 °F 34.4 °F 36.0 °F 93% 29.64 in 10.0 mi South 4.6 mph - 0.00 in   Overcast
5:05 AM 37.4 °F 32.1 °F 35.6 °F 93% 29.61 in 10.0 mi South 6.9 mph - N/A   Overcast
5:20 AM 37.4 °F 32.1 °F 35.6 °F 93% 29.59 in 10.0 mi SE 6.9 mph - N/A   Overcast
5:29 AM 37.4 °F 31.4 °F 35.6 °F 93% 29.59 in 10.0 mi SSE 8.1 mph - N/A   Overcast
5:53 AM 39.0 °F 32.3 °F 37.0 °F 93% 29.59 in 8.0 mi SSE 10.4 mph - N/A   Overcast
6:23 AM 41.0 °F 33.9 °F 39.2 °F 93% 29.57 in 8.0 mi South 12.7 mph - N/A Thunderstorm Overcast
6:53 AM 39.0 °F 31.8 °F 37.9 °F 96% 29.59 in 2.0 mi SSE 11.5 mph - 0.11 in Rain Rain
7:12 AM 42.8 °F 36.6 °F 41.0 °F 93% 29.56 in 4.0 mi South 11.5 mph - 0.00 in Rain Light Rain
7:46 AM 42.8 °F 36.2 °F 42.8 °F 100% 29.57 in 5.0 mi South 12.7 mph - 0.01 in Rain Light Rain
7:53 AM 43.0 °F 36.8 °F 42.1 °F 97% 29.59 in 4.0 mi South 11.5 mph - 0.02 in Rain Light Rain
8:23 AM 42.8 °F 37.0 °F 42.8 °F 100% 29.57 in 1.8 mi South 10.4 mph - 0.05 in Rain Light Rain
8:26 AM 42.8 °F 37.5 °F 42.8 °F 100% 29.57 in 1.5 mi South 9.2 mph - 0.05 in Rain Light Rain
8:42 AM 44.6 °F 38.8 °F 42.8 °F 93% 29.55 in 0.8 mi South 11.5 mph - 0.05 in   Mostly Cloudy
8:46 AM 44.6 °F 39.2 °F 44.6 °F 100% 29.55 in 2.5 mi South 10.4 mph - 0.05 in   Mostly Cloudy
8:53 AM 46.0 °F 41.9 °F 45.0 °F 96% 29.57 in 8.0 mi South 8.1 mph - 0.05 in   Mostly Cloudy
9:53 AM 46.9 °F - 45.0 °F 93% 29.54 in 8.0 mi South 8.1 mph - N/A   Overcast
10:01 AM 46.4 °F 42.4 °F 46.4 °F 100% 29.51 in 6.0 mi South 8.1 mph - N/A   Overcast
10:21 AM 51.8 °F - 50.0 °F 94% 29.51 in 4.0 mi South 11.5 mph - N/A   Overcast
10:53 AM 53.1 °F - 51.1 °F 93% 29.54 in 9.0 mi SSW 15.0 mph 20.7 mph N/A   Overcast
11:13 AM 51.8 °F - 50.0 °F 94% 29.51 in 9.0 mi SW 6.9 mph - N/A   Scattered Clouds
11:41 AM 53.6 °F - 50.0 °F 88% 29.52 in 10.0 mi SW 10.4 mph 20.7 mph N/A   Mostly Cloudy
11:53 AM 53.1 °F - 50.0 °F 89% 29.54 in 10.0 mi SW 13.8 mph 23.0 mph N/A   Overcast
12:53 PM 53.1 °F - 50.0 °F 89% 29.52 in 10.0 mi SW 8.1 mph 17.3 mph N/A   Overcast
1:41 PM 51.8 °F - 48.2 °F 88% 29.49 in 10.0 mi SW 6.9 mph - N/A   Overcast
1:53 PM 52.0 °F - 48.9 °F 89% 29.52 in 10.0 mi WSW 4.6 mph - N/A   Overcast
2:16 PM 51.8 °F - 48.2 °F 88% 29.50 in 8.0 mi WSW 5.8 mph - N/A   Overcast
2:47 PM 48.2 °F - 48.2 °F 100% 29.53 in 2.0 mi West 13.8 mph - 0.01 in Rain Light Rain
2:53 PM 48.0 °F - 46.0 °F 93% 29.54 in 1.8 mi WNW 11.5 mph - 0.02 in Rain Rain
3:05 PM 46.4 °F 41.5 °F 46.4 °F 100% 29.52 in 3.0 mi WNW 10.4 mph - 0.03 in Rain Rain
3:53 PM 43.0 °F 37.2 °F 41.0 °F 93% 29.52 in 9.0 mi NW 10.4 mph - 0.07 in Rain Light Rain
4:04 PM 42.8 °F 37.0 °F 39.2 °F 87% 29.50 in 10.0 mi NW 10.4 mph - 0.00 in Rain Light Rain
4:32 PM 41.0 °F 38.0 °F 39.2 °F 93% 29.51 in 10.0 mi NNW 4.6 mph - 0.00 in   Overcast
4:53 PM 41.0 °F 39.0 °F 37.9 °F 89% 29.55 in 10.0 mi NNW 3.5 mph - 0.00 in Rain Light Rain
5:53 PM 39.0 °F 34.8 °F 36.0 °F 89% 29.55 in 10.0 mi NNW 5.8 mph - 0.01 in   Overcast
6:02 PM 37.4 °F 31.4 °F 35.6 °F 93% 29.52 in 7.0 mi North 8.1 mph - 0.01 in Rain Light Rain
6:43 PM 37.4 °F 32.1 °F 35.6 °F 93% 29.52 in 6.0 mi NNW 6.9 mph - 0.02 in Rain Light Rain
6:53 PM 37.0 °F 31.0 °F 35.1 °F 93% 29.55 in 6.0 mi NNW 8.1 mph - 0.02 in Rain Light Rain
7:24 PM 35.6 °F 29.2 °F 33.8 °F 93% 29.52 in 6.0 mi North 8.1 mph - 0.01 in Rain Light Rain
7:48 PM 35.6 °F 29.9 °F 33.8 °F 93% 29.51 in 5.0 mi NNW 6.9 mph - 0.03 in Rain Light Rain
7:53 PM 36.0 °F 31.1 °F 34.0 °F 93% 29.52 in 5.0 mi NNW 5.8 mph - 0.04 in Rain Light Rain
8:53 PM 36.0 °F 30.3 °F 34.0 °F 93% 29.51 in 4.0 mi NNW 6.9 mph - 0.01 in Rain Light Rain
9:53 PM 36.0 °F 30.3 °F 34.0 °F 93% 29.51 in 4.0 mi North 6.9 mph - 0.04 in Rain Light Rain
10:53 PM 36.0 °F 27.5 °F 34.0 °F 93% 29.50 in 5.0 mi North 12.7 mph - 0.08 in Rain Light Rain
11:30 PM 35.6 °F 26.6 °F 33.8 °F 93% 29.51 in 8.0 mi NNE 13.8 mph - 0.03 in Rain Light Rain
11:53 PM 35.1 °F 25.9 °F 33.1 °F 92% 29.52 in 10.0 mi North 13.8 mph - 0.03 in Rain Light Rain